| time (UTC) | temp F | wind direction | speed MPH | gust MPH | rain 1hr in | rain 24hr in | rain mn in | humidity % | barometer mb |
| 20260831111323 | 70 | 341 | 1.0 | 2.0 | 0.00 | 0.00 | 0.00 | 95 | 1019.4 |
| 20260831110825 | 70 | 341 | 1.0 | 2.0 | 0.00 | 0.00 | 0.00 | 95 | 1019.3 |
| 20260831110325 | 70 | 341 | 1.0 | 2.0 | 0.00 | 0.00 | 0.00 | 95 | 1019.3 |
| 20260831105824 | 70 | 341 | 1.0 | 3.0 | 0.00 | 0.00 | 0.00 | 95 | 1019.3 |
| 20260831105352 | 70 | 341 | 1.0 | 5.0 | 0.00 | 0.00 | 0.00 | 95 | 1019.3 |
| 20260831104830 | 70 | 341 | 1.0 | 2.0 | 0.00 | 0.00 | 0.00 | 95 | 1019.4 |
| 20260831104311 | 71 | 341 | 1.0 | 2.0 | 0.00 | 0.00 | 0.00 | 95 | 1019.3 |
| 20260831103839 | 71 | 341 | 0.0 | 2.0 | 0.00 | 0.00 | 0.00 | 95 | 1019.3 |
| 20260831103319 | 71 | 341 | 1.0 | 3.0 | 0.00 | 0.00 | 0.00 | 95 | 1019.1 |
| 20260831102814 | 71 | 341 | 0.0 | 3.0 | 0.00 | 0.00 | 0.00 | 95 | 1019.0 |
| 20260831102313 | 71 | 341 | 0.0 | 3.0 | 0.00 | 0.00 | 0.00 | 94 | 1019.0 |
| 20260831101815 | 71 | 341 | 0.0 | 2.0 | 0.00 | 0.00 | 0.00 | 94 | 1019.0 |
| 20260831101316 | 71 | 341 | 0.0 | 2.0 | 0.00 | 0.00 | 0.00 | 94 | 1019.0 |
| 20260831100817 | 71 | 341 | 0.0 | 4.0 | 0.00 | 0.00 | 0.00 | 94 | 1019.0 |
| 20260831100318 | 71 | 341 | 1.0 | 5.0 | 0.00 | 0.00 | 0.00 | 94 | 1019.1 |
| 20260831095820 | 71 | 341 | 1.0 | 5.0 | 0.00 | 0.00 | 0.00 | 94 | 1019.2 |
| 20260831095347 | 71 | 341 | 1.0 | 3.0 | 0.00 | 0.00 | 0.00 | 94 | 1019.0 |
| 20260831094827 | 71 | 341 | 1.0 | 3.0 | 0.00 | 0.00 | 0.00 | 94 | 1019.0 |
| 20260831094328 | 71 | 341 | 1.0 | 3.0 | 0.00 | 0.00 | 0.00 | 94 | 1019.0 |
| 20260831093829 | 71 | 341 | 1.0 | 2.0 | 0.00 | 0.00 | 0.00 | 94 | 1018.9 |
| 20260831093328 | 71 | 341 | 1.0 | 4.0 | 0.00 | 0.00 | 0.00 | 93 | 1018.9 |
| 20260831092825 | 71 | 341 | 1.0 | 3.0 | 0.00 | 0.00 | 0.00 | 93 | 1018.9 |
| 20260831092325 | 71 | 341 | 1.0 | 2.0 | 0.00 | 0.00 | 0.00 | 93 | 1018.9 |
| 20260831091825 | 72 | 341 | 1.0 | 4.0 | 0.00 | 0.00 | 0.00 | 93 | 1018.8 |
| 20260831091352 | 72 | 341 | 0.0 | 4.0 | 0.00 | 0.00 | 0.00 | 93 | 1018.9 |
| 20260831090832 | 72 | 341 | 1.0 | 3.0 | 0.00 | 0.00 | 0.00 | 93 | 1018.8 |
| 20260831090313 | 72 | 341 | 0.0 | 3.0 | 0.00 | 0.00 | 0.00 | 93 | 1018.9 |
| 20260831085840 | 72 | 341 | 1.0 | 4.0 | 0.00 | 0.00 | 0.00 | 93 | 1018.9 |
| 20260831085346 | 72 | 341 | 0.0 | 2.0 | 0.00 | 0.00 | 0.00 | 93 | 1018.9 |
| 20260831084826 | 71 | 341 | 0.0 | 2.0 | 0.00 | 0.00 | 0.00 | 93 | 1019.0 |
| 20260831084326 | 72 | 341 | 1.0 | 2.0 | 0.00 | 0.00 | 0.00 | 93 | 1019.0 |
| 20260831083822 | 72 | 341 | 0.0 | 2.0 | 0.00 | 0.00 | 0.00 | 93 | 1018.9 |
| 20260831083323 | 72 | 341 | 0.0 | 2.0 | 0.00 | 0.00 | 0.00 | 93 | 1018.9 |
| 20260831082824 | 72 | 341 | 1.0 | 2.0 | 0.00 | 0.00 | 0.00 | 93 | 1018.9 |
| 20260831082324 | 72 | 341 | 0.0 | 1.0 | 0.00 | 0.00 | 0.00 | 93 | 1018.9 |
| 20260831081825 | 72 | 341 | 0.0 | 2.0 | 0.00 | 0.00 | 0.00 | 92 | 1018.9 |
| 20260831081326 | 72 | 341 | 0.0 | 3.0 | 0.00 | 0.00 | 0.00 | 92 | 1018.9 |
| 20260831080827 | 72 | 341 | 0.0 | 3.0 | 0.00 | 0.00 | 0.00 | 93 | 1019.0 |
| 20260831080328 | 71 | 341 | 1.0 | 3.0 | 0.00 | 0.00 | 0.00 | 93 | 1019.1 |
| 20260831075828 | 71 | 341 | 0.0 | 2.0 | 0.00 | 0.00 | 0.00 | 93 | 1019.1 |
| 20260831075330 | 72 | 341 | 0.0 | 1.0 | 0.00 | 0.00 | 0.00 | 92 | 1019.1 |
| 20260831074811 | 72 | 341 | 0.0 | 1.0 | 0.00 | 0.00 | 0.00 | 91 | 1019.2 |
| 20260831074339 | 72 | 341 | 0.0 | 1.0 | 0.00 | 0.00 | 0.00 | 91 | 1019.1 |
| 20260831073819 | 73 | 341 | 0.0 | 1.0 | 0.00 | 0.00 | 0.00 | 90 | 1019.1 |
| 20260831073317 | 73 | 341 | 0.0 | 1.0 | 0.00 | 0.00 | 0.00 | 90 | 1019.1 |
| 20260831072817 | 73 | 341 | 0.0 | 1.0 | 0.00 | 0.00 | 0.00 | 90 | 1019.2 |
| 20260831072319 | 73 | 341 | 0.0 | 1.0 | 0.00 | 0.00 | 0.00 | 90 | 1019.1 |
| 20260831071820 | 73 | 341 | 0.0 | 1.0 | 0.00 | 0.00 | 0.00 | 89 | 1019.0 |
| 20260831071348 | 73 | 341 | 0.0 | 1.0 | 0.00 | 0.00 | 0.00 | 89 | 1019.0 |
| 20260831070827 | 73 | 341 | 0.0 | 2.0 | 0.00 | 0.00 | 0.00 | 89 | 1019.0 |
| 20260831070329 | 74 | 341 | 1.0 | 4.0 | 0.00 | 0.00 | 0.00 | 89 | 1019.1 |
| 20260831065829 | 74 | 341 | 1.0 | 4.0 | 0.00 | 0.00 | 0.00 | 89 | 1019.1 |
| 20260831065331 | 74 | 341 | 0.0 | 2.0 | 0.00 | 0.00 | 0.00 | 89 | 1019.0 |
| 20260831064830 | 74 | 341 | 1.0 | 3.0 | 0.00 | 0.00 | 0.00 | 89 | 1019.1 |
| 20260831064329 | 74 | 341 | 1.0 | 3.0 | 0.00 | 0.00 | 0.00 | 89 | 1019.0 |
| 20260831063829 | 74 | 341 | 0.0 | 3.0 | 0.00 | 0.00 | 0.00 | 89 | 1019.2 |
| 20260831063326 | 73 | 341 | 1.0 | 3.0 | 0.00 | 0.00 | 0.00 | 89 | 1019.2 |
| 20260831062827 | 73 | 341 | 1.0 | 2.0 | 0.00 | 0.00 | 0.00 | 90 | 1019.1 |
| 20260831062329 | 73 | 341 | 0.0 | 2.0 | 0.00 | 0.00 | 0.00 | 90 | 1019.1 |
| 20260831061811 | 73 | 341 | 1.0 | 2.0 | 0.00 | 0.00 | 0.00 | 90 | 1019.1 |
| 20260831061312 | 73 | 341 | 0.0 | 2.0 | 0.00 | 0.00 | 0.00 | 90 | 1019.2 |
| 20260831060812 | 73 | 341 | 0.0 | 3.0 | 0.00 | 0.00 | 0.00 | 90 | 1019.3 |
| 20260831060341 | 73 | 341 | 0.0 | 3.0 | 0.00 | 0.00 | 0.00 | 90 | 1019.3 |
| 20260831055826 | 73 | 341 | 1.0 | 4.0 | 0.00 | 0.00 | 0.00 | 90 | 1019.3 |
| 20260831055327 | 73 | 341 | 1.0 | 4.0 | 0.00 | 0.00 | 0.00 | 91 | 1019.2 |
| 20260831054829 | 73 | 341 | 0.0 | 3.0 | 0.00 | 0.00 | 0.00 | 91 | 1019.2 |
| 20260831054331 | 73 | 341 | 1.0 | 3.0 | 0.00 | 0.00 | 0.00 | 91 | 1019.3 |
| 20260831053832 | 73 | 341 | 0.0 | 3.0 | 0.00 | 0.00 | 0.00 | 91 | 1019.4 |
| 20260831053328 | 73 | 341 | 0.0 | 1.0 | 0.00 | 0.00 | 0.00 | 91 | 1019.4 |
| 20260831052828 | 73 | 341 | 0.0 | 1.0 | 0.00 | 0.00 | 0.00 | 90 | 1019.4 |
| 20260831052355 | 73 | 341 | 0.0 | 1.0 | 0.00 | 0.00 | 0.00 | 90 | 1019.5 |
| 20260831051834 | 73 | 341 | 0.0 | 2.0 | 0.00 | 0.00 | 0.00 | 90 | 1019.6 |
| 20260831051334 | 73 | 341 | 1.0 | 2.0 | 0.00 | 0.00 | 0.00 | 90 | 1019.7 |
| 20260831050813 | 73 | 341 | 0.0 | 2.0 | 0.00 | 0.00 | 0.00 | 89 | 1019.6 |
| 20260831050315 | 73 | 341 | 0.0 | 3.0 | 0.00 | 0.00 | 0.00 | 89 | 1019.6 |
| 20260831045815 | 74 | 341 | 0.0 | 3.0 | 0.00 | 0.00 | 0.00 | 89 | 1019.6 |
| 20260831045316 | 74 | 341 | 0.0 | 2.0 | 0.00 | 0.00 | 0.00 | 89 | 1019.6 |
| 20260831044816 | 74 | 341 | 0.0 | 2.0 | 0.00 | 0.00 | 0.00 | 89 | 1019.7 |
| 20260831044342 | 74 | 341 | 0.0 | 1.0 | 0.00 | 0.00 | 0.00 | 89 | 1019.6 |
| 20260831043816 | 74 | 341 | 0.0 | 2.0 | 0.00 | 0.00 | 0.00 | 89 | 1019.6 |
| 20260831043315 | 74 | 341 | 0.0 | 2.0 | 0.00 | 0.00 | 0.00 | 88 | 1019.6 |
| 20260831042812 | 74 | 341 | 0.0 | 1.0 | 0.00 | 0.00 | 0.00 | 88 | 1019.7 |
| 20260831042313 | 74 | 341 | 0.0 | 1.0 | 0.00 | 0.00 | 0.00 | 88 | 1019.7 |
| 20260831041812 | 74 | 341 | 0.0 | 1.0 | 0.00 | 0.00 | 0.00 | 87 | 1019.7 |
| 20260831041337 | 74 | 341 | 0.0 | 2.0 | 0.00 | 0.00 | 0.00 | 88 | 1019.6 |
| 20260831040814 | 74 | 341 | 0.0 | 2.0 | 0.00 | 0.00 | 0.00 | 88 | 1019.6 |
| 20260831040312 | 74 | 341 | 0.0 | 2.0 | 0.00 | 0.00 | 0.00 | 88 | 1019.6 |
| 20260831035837 | 74 | 341 | 1.0 | 2.0 | 0.00 | 0.00 | 0.00 | 87 | 1019.7 |
| 20260831035334 | 74 | 341 | 0.0 | 2.0 | 0.00 | 0.00 | 0.00 | 87 | 1019.6 |
| 20260831034856 | 74 | 341 | 0.0 | 2.0 | 0.00 | 0.00 | 0.00 | 87 | 1019.7 |
| 20260831034313 | 74 | 341 | 0.0 | 1.0 | 0.00 | 0.00 | 0.00 | 87 | 1019.6 |
| 20260831033811 | 74 | 341 | 0.0 | 1.0 | 0.00 | 0.00 | 0.00 | 87 | 1019.7 |
| 20260831033314 | 74 | 341 | 0.0 | 1.0 | 0.00 | 0.00 | 0.00 | 87 | 1019.7 |
| 20260831032814 | 74 | 341 | 0.0 | 1.0 | 0.00 | 0.00 | 0.00 | 87 | 1019.7 |
| 20260831032313 | 74 | 341 | 0.0 | 1.0 | 0.00 | 0.00 | 0.00 | 87 | 1019.8 |
| 20260831031816 | 74 | 341 | 0.0 | 1.0 | 0.00 | 0.00 | 0.00 | 87 | 1020.1 |
| 20260831031315 | 75 | 341 | 0.0 | 1.0 | 0.00 | 0.00 | 0.00 | 86 | 1020.2 |
| 20260831030814 | 75 | 341 | 0.0 | 1.0 | 0.00 | 0.00 | 0.00 | 86 | 1020.1 |
| 20260831030315 | 75 | 341 | 0.0 | 1.0 | 0.00 | 0.00 | 0.00 | 86 | 1020.2 |
| 20260831025856 | 75 | 341 | 0.0 | 1.0 | 0.00 | 0.00 | 0.00 | 86 | 1020.1 |
| 20260831025335 | 75 | 341 | 0.0 | 1.0 | 0.00 | 0.00 | 0.00 | 86 | 1020.0 |
| 20260831024834 | 75 | 341 | 0.0 | 1.0 | 0.00 | 0.00 | 0.00 | 85 | 1019.8 |
| 20260831024333 | 75 | 341 | 0.0 | 1.0 | 0.00 | 0.00 | 0.00 | 85 | 1019.9 |
| 20260831023833 | 75 | 341 | 0.0 | 1.0 | 0.00 | 0.00 | 0.00 | 85 | 1019.8 |
| 20260831023331 | 76 | 341 | 0.0 | 0.0 | 0.00 | 0.00 | 0.00 | 84 | 1019.9 |
| 20260831022812 | 76 | 341 | 0.0 | 1.0 | 0.00 | 0.00 | 0.00 | 84 | 1019.9 |
| 20260831022313 | 76 | 341 | 0.0 | 1.0 | 0.00 | 0.00 | 0.00 | 84 | 1019.9 |
| 20260831021813 | 76 | 341 | 0.0 | 3.0 | 0.00 | 0.00 | 0.00 | 83 | 1019.9 |
| 20260831021313 | 76 | 341 | 0.0 | 3.0 | 0.00 | 0.00 | 0.00 | 83 | 1019.9 |
| 20260831020841 | 76 | 341 | 0.0 | 2.0 | 0.00 | 0.00 | 0.00 | 83 | 1019.7 |
| 20260831020317 | 76 | 341 | 0.0 | 1.0 | 0.00 | 0.00 | 0.00 | 83 | 1019.8 |
| 20260831015817 | 76 | 341 | 0.0 | 1.0 | 0.00 | 0.00 | 0.00 | 82 | 1019.8 |
| 20260831015318 | 77 | 341 | 0.0 | 1.0 | 0.00 | 0.00 | 0.00 | 82 | 1019.9 |
| 20260831014819 | 77 | 341 | 0.0 | 1.0 | 0.00 | 0.00 | 0.00 | 82 | 1019.9 |
| 20260831014321 | 77 | 341 | 0.0 | 1.0 | 0.00 | 0.00 | 0.00 | 82 | 1020.0 |
| 20260831013847 | 77 | 341 | 0.0 | 2.0 | 0.00 | 0.00 | 0.00 | 81 | 1019.9 |
| 20260831013353 | 77 | 341 | 0.0 | 2.0 | 0.00 | 0.00 | 0.00 | 81 | 1019.9 |
| 20260831012832 | 77 | 341 | 0.0 | 2.0 | 0.00 | 0.00 | 0.00 | 81 | 1019.9 |
| 20260831012333 | 77 | 341 | 0.0 | 2.0 | 0.00 | 0.00 | 0.00 | 82 | 1019.9 |
| 20260831011834 | 77 | 341 | 0.0 | 1.0 | 0.00 | 0.00 | 0.00 | 81 | 1019.8 |
| 20260831011333 | 77 | 341 | 0.0 | 1.0 | 0.00 | 0.00 | 0.00 | 82 | 1019.8 |
| 20260831010829 | 77 | 341 | 0.0 | 0.0 | 0.00 | 0.00 | 0.00 | 82 | 1019.9 |
| 20260831010327 | 77 | 341 | 0.0 | 0.0 | 0.00 | 0.00 | 0.00 | 81 | 1019.8 |
| 20260831005828 | 77 | 341 | 0.0 | 1.0 | 0.00 | 0.00 | 0.00 | 81 | 1019.8 |
| 20260831005327 | 77 | 341 | 0.0 | 1.0 | 0.00 | 0.00 | 0.00 | 81 | 1019.8 |
| 20260831004828 | 77 | 341 | 0.0 | 1.0 | 0.00 | 0.00 | 0.00 | 81 | 1019.5 |
| 20260831004328 | 77 | 341 | 0.0 | 0.0 | 0.00 | 0.00 | 0.00 | 81 | 1019.4 |
| 20260831003827 | 78 | 341 | 0.0 | 1.0 | 0.00 | 0.00 | 0.00 | 81 | 1019.4 |
| 20260831003327 | 78 | 341 | 0.0 | 1.0 | 0.00 | 0.00 | 0.00 | 81 | 1019.3 |
| 20260831002826 | 78 | 341 | 0.0 | 1.0 | 0.00 | 0.00 | 0.00 | 81 | 1019.3 |
| 20260831002352 | 78 | 341 | 0.0 | 1.0 | 0.00 | 0.00 | 0.00 | 81 | 1019.3 |
| 20260831001830 | 79 | 341 | 0.0 | 0.0 | 0.00 | 0.00 | 0.00 | 80 | 1019.2 |
| 20260831001328 | 79 | 341 | 0.0 | 0.0 | 0.00 | 0.00 | 0.00 | 80 | 1019.2 |
| 20260831000823 | 80 | 341 | 0.0 | 0.0 | 0.00 | 0.00 | 0.00 | 80 | 1019.1 |
| 20260831000325 | 80 | 341 | 0.0 | 1.0 | 0.00 | 0.00 | 0.00 | 79 | 1019.1 |
| 20260830235823 | 81 | 341 | 0.0 | 1.0 | 0.00 | 0.00 | 0.00 | 78 | 1019.0 |
| 20260830235321 | 82 | 341 | 0.0 | 0.0 | 0.00 | 0.00 | 0.00 | 76 | 1018.9 |
| 20260830234818 | 83 | 341 | 0.0 | 1.0 | 0.00 | 0.00 | 0.00 | 75 | 1018.9 |
| 20260830234316 | 84 | 341 | 0.0 | 0.0 | 0.00 | 0.00 | 0.00 | 72 | 1018.8 |
| 20260830233814 | 86 | 341 | 0.0 | 0.0 | 0.00 | 0.00 | 0.00 | 70 | 1019.0 |
| 20260830233314 | 87 | 341 | 0.0 | 0.0 | 0.00 | 0.00 | 0.00 | 68 | 1019.0 |
| 20260830232813 | 89 | 341 | 0.0 | 0.0 | 0.00 | 0.00 | 0.00 | 67 | 1019.1 |
| 20260830232314 | 90 | 341 | 0.0 | 0.0 | 0.00 | 0.00 | 0.00 | 65 | 1019.2 |
| 20260830231840 | 91 | 341 | 0.0 | 1.0 | 0.00 | 0.00 | 0.00 | 63 | 1019.2 |
| 20260830231318 | 91 | 341 | 0.0 | 1.0 | 0.00 | 0.00 | 0.00 | 64 | 1019.2 |
| 20260830230813 | 91 | 341 | 0.0 | 1.0 | 0.00 | 0.00 | 0.00 | 63 | 1019.2 |
| 20260830230337 | 92 | 341 | 0.0 | 1.0 | 0.00 | 0.00 | 0.00 | 63 | 1019.2 |
| 20260830225817 | 92 | 341 | 0.0 | 1.0 | 0.00 | 0.00 | 0.00 | 63 | 1019.3 |
| 20260830225315 | 91 | 341 | 0.0 | 1.0 | 0.00 | 0.00 | 0.00 | 64 | 1019.3 |
| 20260830224813 | 91 | 341 | 0.0 | 1.0 | 0.00 | 0.00 | 0.00 | 62 | 1019.3 |
| 20260830224337 | 92 | 341 | 0.0 | 2.0 | 0.00 | 0.00 | 0.00 | 63 | 1019.2 |
| 20260830223836 | 93 | 341 | 0.0 | 2.0 | 0.00 | 0.00 | 0.00 | 59 | 1019.0 |
| 20260830223335 | 93 | 341 | 0.0 | 1.0 | 0.00 | 0.00 | 0.00 | 59 | 1019.1 |
| 20260830222834 | 94 | 341 | 0.0 | 1.0 | 0.00 | 0.00 | 0.00 | 55 | 1019.1 |
| 20260830222333 | 94 | 341 | 0.0 | 1.0 | 0.00 | 0.00 | 0.00 | 56 | 1019.2 |
| 20260830221829 | 94 | 341 | 0.0 | 4.0 | 0.00 | 0.00 | 0.00 | 55 | 1019.1 |
| 20260830221324 | 95 | 341 | 0.0 | 2.0 | 0.00 | 0.00 | 0.00 | 54 | 1019.1 |
| 20260830220821 | 94 | 341 | 1.0 | 2.0 | 0.00 | 0.00 | 0.00 | 55 | 1019.1 |
| 20260830220320 | 94 | 341 | 0.0 | 3.0 | 0.00 | 0.00 | 0.00 | 55 | 1019.1 |
| 20260830215820 | 96 | 341 | 1.0 | 2.0 | 0.00 | 0.00 | 0.00 | 53 | 1019.1 |
| 20260830215320 | 95 | 341 | 0.0 | 2.0 | 0.00 | 0.00 | 0.00 | 54 | 1019.0 |
| 20260830214846 | 95 | 341 | 1.0 | 2.0 | 0.00 | 0.00 | 0.00 | 54 | 1018.9 |
| 20260830214323 | 95 | 341 | 0.0 | 2.0 | 0.00 | 0.00 | 0.00 | 54 | 1019.0 |
| 20260830213848 | 95 | 341 | 0.0 | 3.0 | 0.00 | 0.00 | 0.00 | 55 | 1018.9 |
| 20260830213327 | 95 | 341 | 1.0 | 3.0 | 0.00 | 0.00 | 0.00 | 51 | 1018.9 |
| 20260830212826 | 95 | 341 | 0.0 | 3.0 | 0.00 | 0.00 | 0.00 | 55 | 1018.9 |
| 20260830212326 | 96 | 341 | 1.0 | 3.0 | 0.00 | 0.00 | 0.00 | 54 | 1018.9 |
| 20260830211822 | 96 | 341 | 0.0 | 3.0 | 0.00 | 0.00 | 0.00 | 54 | 1018.8 |
| 20260830211319 | 95 | 341 | 1.0 | 3.0 | 0.00 | 0.00 | 0.00 | 56 | 1018.8 |
| 20260830210817 | 96 | 341 | 1.0 | 3.0 | 0.00 | 0.00 | 0.00 | 54 | 1018.9 |
| 20260830210342 | 95 | 341 | 0.0 | 2.0 | 0.00 | 0.00 | 0.00 | 55 | 1018.8 |
| 20260830205847 | 94 | 341 | 0.0 | 2.0 | 0.00 | 0.00 | 0.00 | 54 | 1018.8 |
| 20260830205352 | 94 | 341 | 1.0 | 2.0 | 0.00 | 0.00 | 0.00 | 53 | 1018.9 |
| 20260830204858 | 94 | 341 | 1.0 | 2.0 | 0.00 | 0.00 | 0.00 | 54 | 1018.9 |
| 20260830204336 | 94 | 341 | 0.0 | 3.0 | 0.00 | 0.00 | 0.00 | 55 | 1019.1 |
| 20260830203834 | 94 | 341 | 1.0 | 3.0 | 0.00 | 0.00 | 0.00 | 54 | 1019.2 |
| 20260830203328 | 94 | 341 | 1.0 | 3.0 | 0.00 | 0.00 | 0.00 | 56 | 1019.3 |
| 20260830202827 | 94 | 341 | 1.0 | 4.0 | 0.00 | 0.00 | 0.00 | 56 | 1019.4 |
| 20260830202326 | 94 | 341 | 1.0 | 4.0 | 0.00 | 0.00 | 0.00 | 57 | 1019.4 |
| 20260830201826 | 93 | 341 | 0.0 | 2.0 | 0.00 | 0.00 | 0.00 | 58 | 1019.4 |
| 20260830201324 | 93 | 341 | 0.0 | 3.0 | 0.00 | 0.00 | 0.00 | 60 | 1019.4 |
| 20260830200822 | 93 | 341 | 1.0 | 3.0 | 0.00 | 0.00 | 0.00 | 56 | 1019.4 |
| 20260830200347 | 92 | 341 | 1.0 | 5.0 | 0.00 | 0.00 | 0.00 | 58 | 1019.5 |
| 20260830195826 | 92 | 341 | 2.0 | 4.0 | 0.00 | 0.00 | 0.00 | 58 | 1019.5 |
| 20260830195328 | 92 | 341 | 0.0 | 3.0 | 0.00 | 0.00 | 0.00 | 59 | 1019.6 |
| 20260830194827 | 91 | 341 | 1.0 | 5.0 | 0.00 | 0.00 | 0.00 | 60 | 1019.7 |
| 20260830194325 | 91 | 341 | 2.0 | 5.0 | 0.00 | 0.00 | 0.00 | 59 | 1019.7 |
| 20260830193818 | 91 | 341 | 0.0 | 4.0 | 0.00 | 0.00 | 0.00 | 60 | 1019.9 |
| 20260830193318 | 91 | 341 | 2.0 | 4.0 | 0.00 | 0.00 | 0.00 | 60 | 1019.8 |
| 20260830192817 | 91 | 341 | 2.0 | 4.0 | 0.00 | 0.00 | 0.00 | 59 | 1019.9 |
| 20260830192343 | 92 | 341 | 1.0 | 4.0 | 0.00 | 0.00 | 0.00 | 60 | 1019.9 |
| 20260830191821 | 91 | 341 | 1.0 | 2.0 | 0.00 | 0.00 | 0.00 | 64 | 1020.0 |
| 20260830191319 | 90 | 341 | 1.0 | 3.0 | 0.00 | 0.00 | 0.00 | 62 | 1020.2 |
| 20260830190823 | 90 | 341 | 1.0 | 4.0 | 0.00 | 0.00 | 0.00 | 61 | 1020.2 |
| 20260830190324 | 92 | 341 | 1.0 | 4.0 | 0.00 | 0.00 | 0.00 | 60 | 1020.4 |
| 20260830185824 | 93 | 341 | 0.0 | 2.0 | 0.00 | 0.00 | 0.00 | 61 | 1020.4 |
| 20260830185324 | 92 | 341 | 1.0 | 2.0 | 0.00 | 0.00 | 0.00 | 63 | 1020.6 |
| 20260830184817 | 91 | 341 | 1.0 | 2.0 | 0.00 | 0.00 | 0.00 | 63 | 1020.7 |
| 20260830184342 | 92 | 341 | 0.0 | 2.0 | 0.00 | 0.00 | 0.00 | 60 | 1020.8 |
| 20260830183824 | 92 | 341 | 0.0 | 3.0 | 0.00 | 0.00 | 0.00 | 64 | 1020.8 |
| 20260830183321 | 91 | 341 | 1.0 | 3.0 | 0.00 | 0.00 | 0.00 | 64 | 1020.9 |
| 20260830182818 | 90 | 341 | 1.0 | 3.0 | 0.00 | 0.00 | 0.00 | 65 | 1021.1 |
| 20260830182315 | 89 | 341 | 1.0 | 3.0 | 0.00 | 0.00 | 0.00 | 65 | 1021.1 |
| 20260830181816 | 89 | 341 | 1.0 | 4.0 | 0.00 | 0.00 | 0.00 | 65 | 1021.2 |
| 20260830181315 | 88 | 341 | 1.0 | 4.0 | 0.00 | 0.00 | 0.00 | 64 | 1021.3 |
| 20260830180814 | 88 | 341 | 1.0 | 6.0 | 0.00 | 0.00 | 0.00 | 65 | 1021.3 |
| 20260830180334 | 88 | 341 | 2.0 | 6.0 | 0.00 | 0.00 | 0.00 | 64 | 1021.4 |
| 20260830175832 | 89 | 341 | 2.0 | 5.0 | 0.00 | 0.00 | 0.00 | 69 | 1021.6 |
| 20260830175331 | 88 | 341 | 1.0 | 3.0 | 0.00 | 0.00 | 0.00 | 66 | 1021.6 |
| 20260830174834 | 88 | 341 | 1.0 | 5.0 | 0.00 | 0.00 | 0.00 | 70 | 1021.8 |
| 20260830174333 | 89 | 341 | 3.0 | 5.0 | 0.00 | 0.00 | 0.00 | 63 | 1022.0 |
| 20260830173812 | 89 | 341 | 2.0 | 4.0 | 0.00 | 0.00 | 0.00 | 65 | 1021.8 |
| 20260830173338 | 87 | 341 | 1.0 | 5.0 | 0.00 | 0.00 | 0.00 | 71 | 1021.9 |
| 20260830172835 | 86 | 341 | 2.0 | 5.0 | 0.00 | 0.00 | 0.00 | 70 | 1022.0 |
| 20260830172333 | 87 | 341 | 0.0 | 1.0 | 0.00 | 0.00 | 0.00 | 68 | 1022.0 |
| 20260830171830 | 88 | 341 | 0.0 | 1.0 | 0.00 | 0.00 | 0.00 | 68 | 1022.1 |
| 20260830171329 | 87 | 341 | 0.0 | 1.0 | 0.00 | 0.00 | 0.00 | 72 | 1022.1 |
| 20260830170831 | 85 | 341 | 0.0 | 1.0 | 0.00 | 0.00 | 0.00 | 72 | 1022.3 |
| 20260830170312 | 84 | 341 | 0.0 | 3.0 | 0.00 | 0.00 | 0.00 | 74 | 1022.3 |
| 20260830165837 | 84 | 341 | 1.0 | 3.0 | 0.00 | 0.00 | 0.00 | 72 | 1022.2 |
| 20260830165315 | 84 | 341 | 1.0 | 4.0 | 0.00 | 0.00 | 0.00 | 73 | 1022.3 |
| 20260830164815 | 84 | 341 | 1.0 | 4.0 | 0.00 | 0.00 | 0.00 | 71 | 1022.3 |
| 20260830164314 | 85 | 341 | 1.0 | 4.0 | 0.00 | 0.00 | 0.00 | 70 | 1022.4 |
| 20260830163813 | 85 | 341 | 0.0 | 1.0 | 0.00 | 0.00 | 0.00 | 72 | 1022.3 |
| 20260830163312 | 83 | 341 | 0.0 | 2.0 | 0.00 | 0.00 | 0.00 | 76 | 1022.4 |
| 20260830162837 | 83 | 341 | 1.0 | 5.0 | 0.00 | 0.00 | 0.00 | 73 | 1022.3 |
| 20260830162336 | 84 | 341 | 2.0 | 5.0 | 0.00 | 0.00 | 0.00 | 71 | 1022.4 |
| 20260830161838 | 86 | 341 | 3.0 | 4.0 | 0.00 | 0.00 | 0.00 | 69 | 1022.4 |
| 20260830161332 | 85 | 341 | 1.0 | 6.0 | 0.00 | 0.00 | 0.00 | 73 | 1022.4 |
| 20260830160831 | 84 | 341 | 3.0 | 6.0 | 0.00 | 0.00 | 0.00 | 72 | 1022.7 |
| 20260830160331 | 85 | 341 | 1.0 | 2.0 | 0.00 | 0.00 | 0.00 | 73 | 1022.7 |
| 20260830155832 | 84 | 341 | 1.0 | 2.0 | 0.00 | 0.00 | 0.00 | 76 | 1022.7 |
| 20260830155332 | 83 | 341 | 1.0 | 3.0 | 0.00 | 0.00 | 0.00 | 75 | 1022.6 |
| 20260830154831 | 82 | 341 | 0.0 | 4.0 | 0.00 | 0.00 | 0.00 | 77 | 1022.7 |
| 20260830154331 | 82 | 341 | 0.0 | 3.0 | 0.00 | 0.00 | 0.00 | 77 | 1022.6 |
| 20260830153811 | 82 | 341 | 0.0 | 3.0 | 0.00 | 0.00 | 0.00 | 78 | 1022.7 |
| 20260830153357 | 82 | 341 | 0.0 | 1.0 | 0.00 | 0.00 | 0.00 | 79 | 1022.8 |
| 20260830152837 | 80 | 341 | 0.0 | 1.0 | 0.00 | 0.00 | 0.00 | 81 | 1022.7 |
| 20260830152341 | 79 | 341 | 0.0 | 2.0 | 0.00 | 0.00 | 0.00 | 84 | 1022.8 |
| 20260830151817 | 79 | 341 | 1.0 | 4.0 | 0.00 | 0.00 | 0.00 | 84 | 1022.7 |
| 20260830151316 | 79 | 341 | 1.0 | 4.0 | 0.00 | 0.00 | 0.00 | 83 | 1022.8 |
| 20260830150816 | 79 | 341 | 1.0 | 4.0 | 0.00 | 0.00 | 0.00 | 84 | 1022.8 |
| 20260830150315 | 79 | 341 | 2.0 | 4.0 | 0.00 | 0.00 | 0.00 | 82 | 1022.8 |
| 20260830145820 | 79 | 341 | 0.0 | 4.0 | 0.00 | 0.00 | 0.00 | 83 | 1022.8 |
| 20260830145320 | 78 | 341 | 1.0 | 4.0 | 0.00 | 0.00 | 0.00 | 86 | 1022.8 |
| 20260830144819 | 78 | 341 | 1.0 | 4.0 | 0.00 | 0.00 | 0.00 | 85 | 1023.0 |
| 20260830144319 | 79 | 341 | 1.0 | 4.0 | 0.00 | 0.00 | 0.00 | 85 | 1023.0 |
| 20260830143819 | 78 | 341 | 0.0 | 2.0 | 0.00 | 0.00 | 0.00 | 86 | 1023.0 |
| 20260830143320 | 77 | 341 | 0.0 | 1.0 | 0.00 | 0.00 | 0.00 | 87 | 1023.1 |
| 20260830142821 | 77 | 341 | 0.0 | 4.0 | 0.00 | 0.00 | 0.00 | 88 | 1023.1 |
| 20260830142318 | 76 | 341 | 1.0 | 4.0 | 0.00 | 0.00 | 0.00 | 88 | 1023.3 |
| 20260830141814 | 76 | 341 | 1.0 | 4.0 | 0.00 | 0.00 | 0.00 | 89 | 1023.3 |
| 20260830141314 | 76 | 341 | 0.0 | 1.0 | 0.00 | 0.00 | 0.00 | 92 | 1023.2 |
| 20260830140813 | 75 | 341 | 0.0 | 3.0 | 0.00 | 0.00 | 0.00 | 92 | 1023.2 |
| 20260830140339 | 75 | 341 | 1.0 | 3.0 | 0.00 | 0.00 | 0.00 | 93 | 1023.2 |
| 20260830135815 | 75 | 341 | 1.0 | 3.0 | 0.00 | 0.00 | 0.00 | 94 | 1023.2 |
| 20260830135314 | 74 | 341 | 0.0 | 2.0 | 0.00 | 0.00 | 0.00 | 95 | 1023.3 |
| 20260830134841 | 74 | 341 | 0.0 | 3.0 | 0.00 | 0.00 | 0.00 | 95 | 1023.3 |
| 20260830134318 | 74 | 341 | 2.0 | 3.0 | 0.00 | 0.00 | 0.00 | 95 | 1023.3 |
| 20260830133818 | 74 | 341 | 0.0 | 1.0 | 0.00 | 0.00 | 0.00 | 97 | 1023.5 |
| 20260830133318 | 74 | 341 | 0.0 | 1.0 | 0.00 | 0.00 | 0.00 | 98 | 1023.5 |
| 20260830132818 | 74 | 341 | 0.0 | 1.0 | 0.00 | 0.00 | 0.00 | 98 | 1023.6 |
| 20260830132340 | 73 | 341 | 0.0 | 2.0 | 0.00 | 0.00 | 0.00 | 98 | 1023.7 |
| 20260830131819 | 73 | 341 | 0.0 | 2.0 | 0.00 | 0.00 | 0.00 | 98 | 1023.6 |
| 20260830131318 | 73 | 341 | 0.0 | 1.0 | 0.00 | 0.00 | 0.00 | 98 | 1023.7 |
| 20260830130818 | 73 | 341 | 0.0 | 1.0 | 0.00 | 0.00 | 0.00 | 99 | 1023.7 |
| 20260830130319 | 72 | 341 | 0.0 | 1.0 | 0.00 | 0.00 | 0.00 | 98 | 1023.7 |
| 20260830125818 | 72 | 341 | 0.0 | 1.0 | 0.00 | 0.00 | 0.00 | 99 | 1023.7 |
| 20260830125319 | 72 | 341 | 0.0 | 1.0 | 0.00 | 0.00 | 0.00 | 99 | 1023.8 |
| 20260830124846 | 72 | 341 | 0.0 | 1.0 | 0.00 | 0.00 | 0.00 | 99 | 1023.8 |
| 20260830124350 | 72 | 341 | 0.0 | 0.0 | 0.00 | 0.00 | 0.00 | 99 | 1023.7 |
| 20260830123853 | 71 | 341 | 0.0 | 1.0 | 0.00 | 0.00 | 0.00 | 99 | 1023.6 |
| 20260830123330 | 71 | 341 | 0.0 | 1.0 | 0.00 | 0.00 | 0.00 | 99 | 1023.6 |
| 20260830122828 | 71 | 341 | 0.0 | 1.0 | 0.00 | 0.00 | 0.00 | 99 | 1023.5 |
| 20260830122329 | 71 | 341 | 0.0 | 1.0 | 0.00 | 0.00 | 0.00 | 99 | 1023.5 |
| 20260830121828 | 70 | 341 | 0.0 | 1.0 | 0.00 | 0.00 | 0.00 | 99 | 1023.5 |
| 20260830121327 | 70 | 341 | 0.0 | 0.0 | 0.00 | 0.00 | 0.00 | 99 | 1023.5 |
| 20260830120828 | 70 | 341 | 0.0 | 1.0 | 0.00 | 0.00 | 0.00 | 99 | 1023.5 |
| 20260830120355 | 70 | 341 | 0.0 | 1.0 | 0.00 | 0.00 | 0.00 | 99 | 1023.5 |
| 20260830115835 | 69 | 341 | 0.0 | 0.0 | 0.00 | 0.00 | 0.00 | 99 | 1023.5 |
| 20260830115313 | 69 | 341 | 0.0 | 0.0 | 0.00 | 0.00 | 0.00 | 99 | 1023.5 |
| 20260830114812 | 68 | 341 | 0.0 | 0.0 | 0.00 | 0.00 | 0.00 | 99 | 1023.4 |
| 20260830114313 | 68 | 341 | 0.0 | 0.0 | 0.00 | 0.00 | 0.00 | 99 | 1023.4 |
| 20260830113856 | 68 | 341 | 0.0 | 0.0 | 0.00 | 0.00 | 0.00 | 99 | 1023.5 |
| 20260830113336 | 68 | 341 | 0.0 | 0.0 | 0.00 | 0.00 | 0.00 | 99 | 1023.4 |
| 20260830112837 | 67 | 341 | 0.0 | 0.0 | 0.00 | 0.00 | 0.00 | 99 | 1023.3 |
| 20260830112336 | 67 | 341 | 0.0 | 0.0 | 0.00 | 0.00 | 0.00 | 98 | 1023.3 |
| 20260830111837 | 67 | 341 | 0.0 | 0.0 | 0.00 | 0.00 | 0.00 | 98 | 1023.3 |